Regional Weather Roundup
Issued by NWS

Home | Current Version | Previous Version | Graphics & Text | Print | Product List | Glossary On
Versions: 1 2 3 4 5 6 7 8 9 10 11 12 13 14 15 16 17 18 19 20 21 22 23 24 25 26 27 28 29 30 31 32 33 34 35 36 37 38 39 40 41 42 43 44 45 46 47 48 49 50
000
ASUS43 KMKX 030600
RWRWI

WISCONSIN REGIONAL WEATHER ROUNDUP
NATIONAL WEATHER SERVICE MILWAUKEE/SULLIVAN WI
100 AM CDT TUE MAY 03 2016

NOTE: "FAIR" INDICATES FEW OR NO CLOUDS BELOW 12,000 FEET WITH NO
SIGNIFICANT WEATHER AND/OR OBSTRUCTIONS TO VISIBILITY.

WIZ001-002-006>008-014>016-023>028-030700-
NORTHWEST WISCONSIN

CITY           SKY/WX    TMP DP  RH WIND       PRES   REMARKS
SUPERIOR ARPT  CLEAR     33  32  94 SW3       29.94F
ASHLAND        CLEAR     35  35 100 W5        29.93F WCI  31
6HR MIN TEMP:  35; 6HR MAX TEMP:  63;

HAYWARD        CLEAR     38  32  79 CALM      29.95F
6HR MIN TEMP:  38; 6HR MAX TEMP:  64;

SIREN          CLEAR     47  33  57 SW6       29.96F
CUMBERLAND     CLEAR     45  34  65 CALM      29.97F
RICE LAKE      CLEAR     44  38  77 CALM      29.98F
CHETEK         CLEAR     42  36  77 CALM      29.97F
LADYSMITH      CLEAR     40  36  85 CALM      29.98F
6HR MIN TEMP:  40; 6HR MAX TEMP:  63;

EAU CLAIRE     NOT AVBL
MENOMONIE      CLEAR     45  37  72 SW3       29.98F
NEW RICHMOND   CLEAR     45  37  75 CALM      29.98F
OSCEOLA        CLEAR     44  38  79 CALM      30.00F
$$

WIZ003>005-009-010-017-018-030700-
NORTH CENTRAL WISCONSIN

CITY           SKY/WX    TMP DP  RH WIND       PRES   REMARKS
MANITOWISH WTR CLEAR     34  34 100 CALM      29.94F
ARBOR VITAE    CLEAR     39  35  83 CALM      29.95F
WOODRUFF       CLEAR     39  35  83 CALM      29.95F
RHINELANDER    CLEAR     38  32  79 CALM      29.95F
6HR MIN TEMP:  34; 6HR MAX TEMP:  61;

EAGLE RIVER    CLEAR     35  33  92 CALM      29.94F
LAND O LAKES   CLEAR     32  32  99 CALM      29.95F
PHILLIPS       CLEAR     38  34  87 CALM      29.95F
6HR MIN TEMP:  38; 6HR MAX TEMP:  60;

TOMAHAWK       CLEAR     34  31  89 CALM      29.96F
MEDFORD        CLEAR     46  36  67 SW3       29.96F
MERRILL        CLEAR     38  35  88 NE3       29.98S
$$

WIZ029-030-035-036-043>047-030700-
CENTRAL WISCONSIN

CITY           SKY/WX    TMP DP  RH WIND       PRES   REMARKS
WAUSAU         CLEAR     48  38  68 CALM      29.94F
6HR MIN TEMP:  48; 6HR MAX TEMP:  62;

MOSINEE        CLEAR     48  32  53 W5        29.98F
MARSHFIELD     CLEAR     49  34  56 W6        29.96F
6HR MIN TEMP:  47; 6HR MAX TEMP:  62;

STEVENS POINT  MOCLDY    41  34  76 CALM      29.98S
WAUPACA        CLEAR     46  34  64 CALM      29.98F
WAUTOMA        CLEAR     40  34  79 CALM      29.98F
6HR MIN TEMP:  39; 6HR MAX TEMP:  62;

WISC RAPIDS    CLEAR     41  33  73 CALM      29.98F
6HR MIN TEMP:  41; 6HR MAX TEMP:  63;

CAMP DOUGLAS   NOT AVBL
$$

WIZ011>013-019>022-031-037>040-048>050-030700-
NORTHEAST WISCONSIN

CITY           SKY/WX    TMP DP  RH WIND       PRES   REMARKS
ANTIGO         CLEAR     40  36  86 CALM      29.96F
SHAWANO        CLEAR     50  37  59 CALM      29.96F
6HR MIN TEMP:  50; 6HR MAX TEMP:  62;

OCONTO         CLEAR     39  39 100 CALM      29.96F
STURGEON BAY   CLEAR     43  30  61 S6        29.98F
6HR MIN TEMP:  43; 6HR MAX TEMP:  55;

GREEN BAY      CLEAR     44  37  76 CALM      29.96F
6HR MIN TEMP:  43; 6HR MAX TEMP:  60;

MANITOWOC      NOT AVBL
APPLETON       CLEAR     46  34  61 SW8       29.96F
CLINTONVILLE   CLEAR     46  36  66 SW3       29.97F
OSHKOSH        PTCLDY    46  35  65 S8        29.97F
6HR MIN TEMP:  45; 6HR MAX TEMP:  59;

$$

WIZ032>034-041-042-053>061-030700-
SOUTHWEST WISCONSIN

CITY           SKY/WX    TMP DP  RH WIND       PRES   REMARKS
LA CROSSE      PTCLDY    49  41  74 E5        29.99F
6HR MIN TEMP:  49; 6HR MAX TEMP:  64;

SPARTA         CLEAR     39  35  88 CALM      30.00S
VIROQUA        PTCLDY    51  35  55 W6        30.00S
BOSCOBEL       CLEAR     44  40  85 SW5       30.01S
6HR MIN TEMP:  44; 6HR MAX TEMP:  63;

PRAIRIE DU CHI CLEAR     43  39  86 CALM      30.01S
PLATTEVILLE    CLEAR     48  38  70 W3        30.01S
$$

WIZ056-057-062-063-064-067-068-030700-
SOUTH CENTRAL WISCONSIN

CITY           SKY/WX    TMP DP  RH WIND       PRES   REMARKS
REEDSBURG      PTCLDY    44  40  85 CALM      29.98F
BARABOO/DELLS  PTCLDY    45  35  67 CALM      29.99S
LONE ROCK      NOT AVBL
MINERAL POINT  CLEAR     48  36  61 W5        30.00S
MADISON        CLEAR     47  38  71 S6        29.99F
6HR MIN TEMP:  42; 6HR MAX TEMP:  59;

MIDDLETON      CLEAR     42  39  89 CALM      30.00S
WATERTOWN      CLEAR     39  35  87 CALM      30.00F
MONROE         CLEAR     45  36  70 SE3       30.00S
JANESVILLE     PTCLDY    41  37  87 CALM      30.00F
$$

WIZ051-052-058>065-066-070>072-030700-
SOUTHEAST WISCONSIN

CITY           SKY/WX    TMP DP  RH WIND       PRES   REMARKS
MILWAUKEE      CLEAR     42  33  70 CALM      29.99F
6HR MIN TEMP:  42; 6HR MAX TEMP:  50;

WAUKESHA       CLEAR     37  32  81 CALM      30.01S
MILWAUKEE/TIMM CLEAR     41  32  70 CALM      30.01S
RACINE         CLEAR     40  33  76 W3        30.01S
6HR MIN TEMP:  39; 6HR MAX TEMP:  51;

BURLINGTON     PTCLDY    37  36  96 CALM      30.00F
KENOSHA        CLEAR     39  35  86 NW3       29.99F
6HR MIN TEMP:  38; 6HR MAX TEMP:  51;

FOND DU LAC    CLEAR     41  34  76 S5        29.98F
6HR MIN TEMP:  41; 6HR MAX TEMP:  60;

SHEBOYGAN      CLEAR     42  35  76 SW3       29.98F
6HR MIN TEMP:  40; 6HR MAX TEMP:  55;

WEST BEND      CLEAR     37  34  87 CALM      30.00S
JUNEAU         CLEAR     45  34  65 S5        30.01F
$$

LSZ147-162-030700-
LAKE SUPERIOR

STATION/POSITION TIME  TEMP    WIND        PRES    WAVE
                       AIR SEA DIR/SP/G            HT/PER
                 (UTC) (F)     (DEG/KT/KT) (MB)    (FT/S)
W MID LAKE BUOY  0450   40 37  180/  6/  6 1013.8F   0
DEVILS ISLAND    0500   49     190/  8/  9 1013.7F
SAXON HARBOR     0540   39     180/  3/  6 1012.9F
$$

LMZ867-665-643>646-030700-
LAKE MICHIGAN

STATION/POSITION TIME  TEMP    WIND        PRES    WAVE
                       AIR SEA DIR/SP/G            HT/PER
                 (UTC) (F)     (DEG/KT/KT) (MB)    (FT/S)
CHAMBERS ISLAND  0500   42     190/  3/  5 1014.9F
N MID LAKE BUOY  0450   44 38  290/  2/  4 1015.0F   0
NORTHPORT PIER   0500   47     220/  2/  4 1014.6F
ALGOMA LAKESHORE 0500             CALM       N/A
KEWAUNEE LAKESHO 0500   44     290/  3/  4 1014.6F
SHEBOYGAN LAKESH 0500   48     250/  5/  7 1016.1F
PORT WASHINGTON  0540   45     270/  2/  3 1016.3F
S MID LAKE BUOY  0450   42 41  330/  4/  4 1015.7F   1
KENOSHA   LAKESH 0500   47     290/  6/  7 1015.9F
$$

TC  - TEMPERATURE IN CELSIUS
VSB - VISIBILITY IN STATUTE MILES
WCI - WIND CHILL INDEX
HX  - HEAT INDEX




USA.gov is the U.S. government's official web portal to all federal, state and local government web resources and services.